When you browse on this site, cookies collect data to enhance your experience and personalize the content and advertising you see.
Visit our Privacy Policy to learn more. By continuing to use the site, you agree to this use of cookies and data.
  • In Österreich
  • Länderverzeichnis
  • Für 7 Tage
  • Wassertemperatur
  • Wetterkarte
  • News
  • Widgets
  • user-avatar
    Anmelden

    Stündliche Wetter Hlukhe

    Heute, 22 September, Sonntag

    Zeit Temperatur Niederschläge Wind Luftdruck Luftfeuchtigkeit
    00:00 +7°C° 0 mm 5 m/S 757 mmHg 52%
    01:00 +8°C° 0 mm 5 m/S 756 mmHg 50%
    02:00 +8°C° 0 mm 6 m/S 756 mmHg 47%
    03:00 +9°C° 0 mm 7 m/S 755 mmHg 48%
    04:00 +9°C° 0 mm 7 m/S 755 mmHg 49%
    05:00 +10°C° 0 mm 8 m/S 755 mmHg 50%
    06:00 +10°C° 0.1 mm 8 m/S 754 mmHg 55%
    07:00 +11°C° 0.1 mm 8 m/S 754 mmHg 60%
    08:00 +11°C° 0.1 mm 8 m/S 754 mmHg 65%
    09:00 +13°C° 0 mm 8 m/S 754 mmHg 61%
    10:00 +16°C° 0 mm 9 m/S 754 mmHg 57%
    11:00 +17°C° 0 mm 9 m/S 754 mmHg 54%
    12:00 +18°C° 0 mm 8 m/S 754 mmHg 53%
    13:00 +18°C° 0 mm 8 m/S 753 mmHg 52%
    14:00 +18°C° 0 mm 8 m/S 753 mmHg 51%
    15:00 +18°C° 0 mm 7 m/S 753 mmHg 51%
    16:00 +19°C° 0 mm 6 m/S 753 mmHg 51%
    17:00 +19°C° 0 mm 5 m/S 752 mmHg 52%
    18:00 +18°C° 0 mm 4 m/S 753 mmHg 57%
    19:00 +16°C° 0 mm 3 m/S 753 mmHg 62%
    20:00 +15°C° 0 mm 2 m/S 753 mmHg 67%
    21:00 +13°C° 0 mm 3 m/S 753 mmHg 69%
    22:00 +13°C° 0 mm 3 m/S 753 mmHg 70%
    23:00 +13°C° 0 mm 3 m/S 752 mmHg 72%

    Morgen, 23 September, Montag

    Zeit Temperatur Niederschläge Wind Luftdruck Luftfeuchtigkeit
    00:00 +12°C° 0 mm 4 m/S 752 mmHg 72%
    01:00 +12°C° 0 mm 4 m/S 753 mmHg 73%
    02:00 +12°C° 0 mm 4 m/S 753 mmHg 74%
    03:00 +11°C° 0 mm 4 m/S 753 mmHg 75%
    04:00 +11°C° 0 mm 4 m/S 753 mmHg 77%
    05:00 +11°C° 0 mm 4 m/S 753 mmHg 78%
    06:00 +12°C° 0 mm 4 m/S 753 mmHg 75%
    07:00 +14°C° 0 mm 4 m/S 753 mmHg 71%
    08:00 +16°C° 0 mm 3 m/S 753 mmHg 68%
    09:00 +17°C° 0 mm 3 m/S 754 mmHg 64%
    10:00 +18°C° 0 mm 3 m/S 754 mmHg 60%
    11:00 +18°C° 0 mm 3 m/S 754 mmHg 57%
    12:00 +19°C° 0 mm 3 m/S 754 mmHg 54%
    13:00 +19°C° 0 mm 3 m/S 754 mmHg 51%
    14:00 +19°C° 0 mm 4 m/S 754 mmHg 48%
    15:00 +18°C° 0 mm 4 m/S 754 mmHg 49%
    16:00 +16°C° 0 mm 5 m/S 754 mmHg 49%
    17:00 +15°C° 0 mm 5 m/S 754 mmHg 50%
    18:00 +14°C° 0 mm 5 m/S 754 mmHg 51%
    19:00 +13°C° 0 mm 4 m/S 755 mmHg 53%
    20:00 +12°C° 0 mm 4 m/S 755 mmHg 54%
    21:00 +13°C° 0 mm 4 m/S 755 mmHg 52%
    22:00 +13°C° 0 mm 4 m/S 755 mmHg 49%
    23:00 +13°C° 0 mm 3 m/S 755 mmHg 47%

    übermorgen, 24 September, Dienstag

    Zeit Temperatur Niederschläge Wind Luftdruck Luftfeuchtigkeit
    00:00 +12°C° 0 mm 4 m/S 755 mmHg 46%
    01:00 +12°C° 0 mm 4 m/S 755 mmHg 46%
    02:00 +11°C° 0 mm 4 m/S 755 mmHg 46%
    03:00 +11°C° 0 mm 4 m/S 755 mmHg 46%
    04:00 +10°C° 0 mm 3 m/S 755 mmHg 46%
    05:00 +9°C° 0 mm 3 m/S 755 mmHg 47%
    06:00 +10°C° 0 mm 3 m/S 755 mmHg 45%
    07:00 +11°C° 0 mm 3 m/S 756 mmHg 43%
    08:00 +12°C° 0 mm 3 m/S 756 mmHg 40%
    09:00 +14°C° 0 mm 3 m/S 755 mmHg 40%
    10:00 +16°C° 0 mm 3 m/S 755 mmHg 40%
    11:00 +18°C° 0 mm 3 m/S 755 mmHg 40%
    12:00 +18°C° 0 mm 2 m/S 755 mmHg 39%
    13:00 +19°C° 0 mm 2 m/S 755 mmHg 38%
    14:00 +21°C° 0 mm 1 m/S 754 mmHg 37%
    15:00 +20°C° 0 mm 1 m/S 754 mmHg 39%
    16:00 +20°C° 0 mm 1 m/S 754 mmHg 40%
    17:00 +19°C° 0 mm 1 m/S 754 mmHg 42%
    18:00 +17°C° 0 mm 2 m/S 754 mmHg 40%
    19:00 +16°C° 0 mm 2 m/S 754 mmHg 39%
    20:00 +14°C° 0 mm 3 m/S 754 mmHg 37%
    21:00 +14°C° 0 mm 3 m/S 754 mmHg 36%
    22:00 +13°C° 0 mm 3 m/S 754 mmHg 35%
    23:00 +13°C° 0 mm 3 m/S 754 mmHg 34%

    25 September, Mittwoch

    Zeit Temperatur Niederschläge Wind Luftdruck Luftfeuchtigkeit
    00:00 +12°C° 0 mm 3 m/S 754 mmHg 37%
    01:00 +12°C° 0 mm 3 m/S 754 mmHg 40%
    02:00 +12°C° 0 mm 3 m/S 754 mmHg 43%
    03:00 +11°C° 0 mm 3 m/S 754 mmHg 44%
    04:00 +10°C° 0 mm 3 m/S 754 mmHg 44%
    05:00 +10°C° 0 mm 3 m/S 754 mmHg 45%
    06:00 +11°C° 0 mm 3 m/S 754 mmHg 41%
    07:00 +12°C° 0 mm 3 m/S 754 mmHg 37%
    08:00 +14°C° 0 mm 3 m/S 754 mmHg 33%
    09:00 +16°C° 0 mm 3 m/S 754 mmHg 33%
    10:00 +18°C° 0 mm 3 m/S 754 mmHg 33%
    11:00 +20°C° 0 mm 3 m/S 754 mmHg 33%
    12:00 +20°C° 0 mm 3 m/S 754 mmHg 32%
    13:00 +21°C° 0 mm 3 m/S 754 mmHg 30%
    14:00 +22°C° 0 mm 3 m/S 753 mmHg 29%
    15:00 +21°C° 0 mm 3 m/S 753 mmHg 30%
    16:00 +20°C° 0 mm 2 m/S 753 mmHg 32%
    17:00 +20°C° 0 mm 2 m/S 753 mmHg 33%
    18:00 +18°C° 0 mm 3 m/S 753 mmHg 34%
    19:00 +17°C° 0 mm 3 m/S 753 mmHg 35%
    20:00 +15°C° 0 mm 4 m/S 754 mmHg 35%
    21:00 +14°C° 0 mm 3 m/S 754 mmHg 40%
    22:00 +13°C° 0 mm 3 m/S 754 mmHg 44%
    23:00 +14°C° 0 mm 2 m/S 754 mmHg 49%

    26 September, Donnerstag

    Zeit Temperatur Niederschläge Wind Luftdruck Luftfeuchtigkeit
    00:00 +13°C° 0 mm 2 m/S 754 mmHg 48%
    01:00 +13°C° 0 mm 2 m/S 753 mmHg 47%
    02:00 +12°C° 0 mm 3 m/S 753 mmHg 46%
    03:00 +11°C° 0 mm 3 m/S 753 mmHg 43%
    04:00 +11°C° 0 mm 3 m/S 754 mmHg 41%
    05:00 +10°C° 0 mm 4 m/S 754 mmHg 39%
    06:00 +11°C° 0 mm 4 m/S 754 mmHg 38%
    07:00 +12°C° 0 mm 4 m/S 754 mmHg 37%
    08:00 +14°C° 0 mm 5 m/S 754 mmHg 36%
    09:00 +15°C° 0 mm 5 m/S 754 mmHg 31%
    10:00 +17°C° 0 mm 5 m/S 753 mmHg 27%
    11:00 +19°C° 0 mm 5 m/S 753 mmHg 22%
    12:00 +20°C° 0 mm 4 m/S 753 mmHg 22%
    13:00 +20°C° 0 mm 4 m/S 752 mmHg 21%
    14:00 +21°C° 0 mm 3 m/S 752 mmHg 20%
    15:00 +20°C° 0 mm 3 m/S 752 mmHg 24%
    16:00 +20°C° 0 mm 2 m/S 751 mmHg 28%
    17:00 +19°C° 0 mm 2 m/S 751 mmHg 32%
    18:00 +18°C° 0 mm 2 m/S 751 mmHg 38%
    19:00 +17°C° 0 mm 2 m/S 751 mmHg 44%
    20:00 +16°C° 0 mm 3 m/S 751 mmHg 50%
    21:00 +15°C° 0 mm 2 m/S 751 mmHg 56%
    22:00 +15°C° 0 mm 2 m/S 751 mmHg 63%
    23:00 +15°C° 0 mm 2 m/S 750 mmHg 70%

    27 September, Freitag

    Zeit Temperatur Niederschläge Wind Luftdruck Luftfeuchtigkeit
    00:00 +15°C° 0 mm 1 m/S 750 mmHg 73%
    01:00 +14°C° 0 mm 1 m/S 750 mmHg 77%
    02:00 +14°C° 0 mm 1 m/S 750 mmHg 80%
    03:00 +14°C° 0 mm 1 m/S 750 mmHg 81%
    04:00 +13°C° 0 mm 1 m/S 750 mmHg 82%
    05:00 +13°C° 0 mm 1 m/S 750 mmHg 83%
    06:00 +14°C° 0 mm 1 m/S 750 mmHg 78%
    07:00 +14°C° 0 mm 0 m/S 750 mmHg 74%
    08:00 +15°C° 0 mm 0 m/S 750 mmHg 70%
    09:00 +16°C° 0 mm 0 m/S 750 mmHg 63%
    10:00 +19°C° 0 mm 1 m/S 750 mmHg 55%
    11:00 +20°C° 0 mm 1 m/S 750 mmHg 48%
    12:00 +21°C° 0 mm 1 m/S 750 mmHg 45%
    13:00 +21°C° 0 mm 2 m/S 750 mmHg 42%
    14:00 +22°C° 0 mm 3 m/S 749 mmHg 39%
    15:00 +21°C° 0 mm 3 m/S 749 mmHg 41%
    16:00 +20°C° 0 mm 3 m/S 750 mmHg 43%
    17:00 +20°C° 0 mm 3 m/S 750 mmHg 45%
    18:00 +19°C° 0 mm 3 m/S 750 mmHg 50%
    19:00 +18°C° 0 mm 4 m/S 750 mmHg 55%
    20:00 +17°C° 0 mm 4 m/S 751 mmHg 61%
    21:00 +16°C° 0.1 mm 5 m/S 751 mmHg 68%
    22:00 +15°C° 0.1 mm 5 m/S 751 mmHg 75%
    23:00 +14°C° 0.1 mm 5 m/S 751 mmHg 82%
    Mehr zeigen